• Em Portugal
  • Lista de países
  • Para 7 dias
  • Temperatura da água
  • Mapas de satélite
  • Mapa do tempo
  • Widgets de tempo
  • user-avatar
    Iniciar Sessão

    Previsão horária em Lisboa

    Hoje, 21 Outubro, Sábado

    Tempo Temperatura Precipitação Vento Pressão Humidade
    00:00 +19°C° 0,1 mm 2 m/s 763 mmHg 93%
    01:00 +19°C° 0,1 mm 2 m/s 763 mmHg 92%
    02:00 +19°C° 0,1 mm 3 m/s 763 mmHg 91%
    03:00 +19°C° 0 mm 3 m/s 763 mmHg 91%
    04:00 +19°C° 0 mm 4 m/s 764 mmHg 91%
    05:00 +18°C° 0 mm 4 m/s 764 mmHg 91%
    06:00 +17°C° 0 mm 5 m/s 764 mmHg 85%
    07:00 +19°C° 0 mm 5 m/s 765 mmHg 78%
    08:00 +19°C° 0 mm 6 m/s 765 mmHg 71%
    09:00 +20°C° 0 mm 6 m/s 765 mmHg 64%
    10:00 +22°C° 0 mm 6 m/s 765 mmHg 57%
    11:00 +23°C° 0 mm 6 m/s 765 mmHg 49%
    12:00 +23°C° 0 mm 6 m/s 765 mmHg 47%
    13:00 +23°C° 0 mm 6 m/s 765 mmHg 45%
    14:00 +23°C° 0 mm 7 m/s 765 mmHg 43%
    15:00 +21°C° 0 mm 7 m/s 765 mmHg 48%
    16:00 +20°C° 0 mm 7 m/s 765 mmHg 53%
    17:00 +18°C° 0 mm 7 m/s 765 mmHg 58%
    18:00 +17°C° 0 mm 7 m/s 766 mmHg 60%
    19:00 +16°C° 0 mm 7 m/s 766 mmHg 62%
    20:00 +15°C° 0 mm 7 m/s 767 mmHg 64%
    21:00 +15°C° 0 mm 7 m/s 766 mmHg 65%
    22:00 +14°C° 0 mm 7 m/s 766 mmHg 65%
    23:00 +14°C° 0 mm 7 m/s 766 mmHg 66%

    Amanhã, 22 Outubro, Domingo

    Tempo Temperatura Precipitação Vento Pressão Humidade
    00:00 +14°C° 0 mm 6 m/s 766 mmHg 67%
    01:00 +13°C° 0 mm 6 m/s 766 mmHg 68%
    02:00 +13°C° 0 mm 6 m/s 766 mmHg 69%
    03:00 +13°C° 0 mm 6 m/s 765 mmHg 70%
    04:00 +12°C° 0 mm 5 m/s 765 mmHg 72%
    05:00 +12°C° 0 mm 5 m/s 765 mmHg 74%
    06:00 +13°C° 0 mm 5 m/s 766 mmHg 69%
    07:00 +14°C° 0 mm 5 m/s 766 mmHg 64%
    08:00 +15°C° 0 mm 5 m/s 766 mmHg 59%
    09:00 +17°C° 0 mm 5 m/s 766 mmHg 51%
    10:00 +20°C° 0 mm 5 m/s 766 mmHg 43%
    11:00 +22°C° 0 mm 4 m/s 766 mmHg 35%
    12:00 +23°C° 0 mm 4 m/s 765 mmHg 33%
    13:00 +25°C° 0 mm 5 m/s 765 mmHg 31%
    14:00 +26°C° 0 mm 5 m/s 764 mmHg 29%
    15:00 +23°C° 0 mm 5 m/s 764 mmHg 36%
    16:00 +21°C° 0 mm 5 m/s 764 mmHg 43%
    17:00 +19°C° 0 mm 6 m/s 764 mmHg 50%
    18:00 +17°C° 0 mm 5 m/s 764 mmHg 55%
    19:00 +16°C° 0 mm 5 m/s 764 mmHg 61%
    20:00 +15°C° 0 mm 5 m/s 764 mmHg 66%
    21:00 +15°C° 0 mm 5 m/s 764 mmHg 67%
    22:00 +14°C° 0 mm 5 m/s 764 mmHg 68%
    23:00 +14°C° 0 mm 4 m/s 764 mmHg 69%

    Depois de amanhã, 23 Outubro, Segunda-feira

    Tempo Temperatura Precipitação Vento Pressão Humidade
    00:00 +14°C° 0 mm 4 m/s 764 mmHg 70%
    01:00 +13°C° 0 mm 4 m/s 764 mmHg 71%
    02:00 +13°C° 0 mm 4 m/s 763 mmHg 72%
    03:00 +13°C° 0 mm 4 m/s 763 mmHg 71%
    04:00 +13°C° 0 mm 4 m/s 763 mmHg 70%
    05:00 +13°C° 0 mm 3 m/s 763 mmHg 68%
    06:00 +14°C° 0 mm 3 m/s 763 mmHg 60%
    07:00 +17°C° 0 mm 3 m/s 763 mmHg 52%
    08:00 +18°C° 0 mm 3 m/s 763 mmHg 44%
    09:00 +21°C° 0 mm 3 m/s 763 mmHg 39%
    10:00 +24°C° 0 mm 3 m/s 763 mmHg 34%
    11:00 +27°C° 0 mm 3 m/s 763 mmHg 28%
    12:00 +27°C° 0 mm 3 m/s 763 mmHg 27%
    13:00 +28°C° 0 mm 3 m/s 762 mmHg 25%
    14:00 +29°C° 0 mm 3 m/s 762 mmHg 24%
    15:00 +27°C° 0 mm 3 m/s 762 mmHg 27%
    16:00 +25°C° 0 mm 3 m/s 761 mmHg 31%
    17:00 +22°C° 0 mm 3 m/s 761 mmHg 35%
    18:00 +21°C° 0 mm 3 m/s 762 mmHg 37%
    19:00 +21°C° 0 mm 3 m/s 762 mmHg 39%
    20:00 +20°C° 0 mm 3 m/s 762 mmHg 40%
    21:00 +19°C° 0 mm 3 m/s 762 mmHg 41%
    22:00 +19°C° 0 mm 3 m/s 762 mmHg 41%
    23:00 +19°C° 0 mm 3 m/s 762 mmHg 42%

    24 Outubro, Terça-feira

    Tempo Temperatura Precipitação Vento Pressão Humidade
    00:00 +18°C° 0 mm 3 m/s 761 mmHg 43%
    01:00 +18°C° 0 mm 3 m/s 761 mmHg 43%
    02:00 +18°C° 0 mm 3 m/s 761 mmHg 43%
    03:00 +17°C° 0 mm 3 m/s 761 mmHg 44%
    04:00 +17°C° 0 mm 3 m/s 761 mmHg 44%
    05:00 +17°C° 0 mm 3 m/s 760 mmHg 44%
    06:00 +18°C° 0 mm 3 m/s 761 mmHg 42%
    07:00 +19°C° 0 mm 3 m/s 761 mmHg 40%
    08:00 +21°C° 0 mm 3 m/s 761 mmHg 37%
    09:00 +24°C° 0 mm 3 m/s 761 mmHg 35%
    10:00 +26°C° 0 mm 2 m/s 761 mmHg 33%
    11:00 +28°C° 0 mm 2 m/s 761 mmHg 31%
    12:00 +28°C° 0 mm 2 m/s 760 mmHg 31%
    13:00 +29°C° 0 mm 2 m/s 760 mmHg 31%
    14:00 +29°C° 0 mm 2 m/s 760 mmHg 30%
    15:00 +27°C° 0 mm 2 m/s 760 mmHg 35%
    16:00 +25°C° 0 mm 2 m/s 760 mmHg 40%
    17:00 +23°C° 0 mm 2 m/s 760 mmHg 45%
    18:00 +23°C° 0 mm 2 m/s 760 mmHg 47%
    19:00 +22°C° 0 mm 1 m/s 760 mmHg 49%
    20:00 +21°C° 0 mm 1 m/s 760 mmHg 52%
    21:00 +20°C° 0 mm 1 m/s 760 mmHg 52%
    22:00 +20°C° 0 mm 1 m/s 760 mmHg 53%
    23:00 +20°C° 0 mm 1 m/s 760 mmHg 54%

    25 Outubro, Quarta-feira

    Tempo Temperatura Precipitação Vento Pressão Humidade
    00:00 +19°C° 0 mm 1 m/s 760 mmHg 54%
    01:00 +19°C° 0 mm 1 m/s 760 mmHg 54%
    02:00 +19°C° 0 mm 1 m/s 760 mmHg 54%
    03:00 +18°C° 0 mm 2 m/s 760 mmHg 55%
    04:00 +17°C° 0 mm 2 m/s 760 mmHg 57%
    05:00 +17°C° 0 mm 2 m/s 760 mmHg 58%
    06:00 +18°C° 0 mm 2 m/s 760 mmHg 56%
    07:00 +20°C° 0 mm 3 m/s 760 mmHg 54%
    08:00 +21°C° 0 mm 3 m/s 760 mmHg 51%
    09:00 +24°C° 0 mm 3 m/s 760 mmHg 46%
    10:00 +26°C° 0 mm 3 m/s 760 mmHg 41%
    11:00 +28°C° 0 mm 3 m/s 760 mmHg 36%
    12:00 +29°C° 0 mm 3 m/s 760 mmHg 35%
    13:00 +29°C° 0 mm 3 m/s 760 mmHg 34%
    14:00 +30°C° 0 mm 3 m/s 759 mmHg 32%
    15:00 +28°C° 0 mm 3 m/s 760 mmHg 40%
    16:00 +25°C° 0 mm 3 m/s 760 mmHg 47%
    17:00 +22°C° 0 mm 3 m/s 760 mmHg 55%
    18:00 +21°C° 0 mm 3 m/s 761 mmHg 62%
    19:00 +20°C° 0 mm 3 m/s 761 mmHg 69%
    20:00 +19°C° 0 mm 2 m/s 761 mmHg 76%
    21:00 +19°C° 0 mm 2 m/s 761 mmHg 78%
    22:00 +19°C° 0 mm 2 m/s 762 mmHg 80%
    23:00 +18°C° 0 mm 2 m/s 762 mmHg 82%

    26 Outubro, Quinta-feira

    Tempo Temperatura Precipitação Vento Pressão Humidade
    00:00 +18°C° 0 mm 3 m/s 762 mmHg 83%
    01:00 +18°C° 0 mm 3 m/s 761 mmHg 85%
    02:00 +17°C° 0 mm 3 m/s 761 mmHg 86%
    03:00 +17°C° 0 mm 3 m/s 762 mmHg 87%
    04:00 +17°C° 0 mm 3 m/s 762 mmHg 88%
    05:00 +17°C° 0 mm 3 m/s 762 mmHg 89%
    06:00 +18°C° 0 mm 3 m/s 762 mmHg 81%
    07:00 +20°C° 0 mm 4 m/s 763 mmHg 73%
    08:00 +21°C° 0 mm 4 m/s 763 mmHg 65%
    09:00 +23°C° 0 mm 4 m/s 763 mmHg 54%
    10:00 +27°C° 0 mm 4 m/s 763 mmHg 44%
    11:00 +29°C° 0 mm 4 m/s 763 mmHg 33%
    12:00 +30°C° 0 mm 3 m/s 763 mmHg 31%
    13:00 +31°C° 0 mm 3 m/s 762 mmHg 28%
    14:00 +32°C° 0 mm 2 m/s 762 mmHg 25%
    15:00 +30°C° 0 mm 2 m/s 762 mmHg 29%
    16:00 +28°C° 0 mm 2 m/s 762 mmHg 33%
    17:00 +25°C° 0 mm 2 m/s 763 mmHg 37%
    18:00 +24°C° 0 mm 2 m/s 763 mmHg 39%
    19:00 +23°C° 0 mm 1 m/s 763 mmHg 41%
    20:00 +22°C° 0 mm 1 m/s 764 mmHg 44%
    21:00 +22°C° 0 mm 1 m/s 764 mmHg 44%
    22:00 +21°C° 0 mm 1 m/s 764 mmHg 45%
    23:00 +21°C° 0 mm 1 m/s 764 mmHg 45%
    Mostrar mais